This is the latest recevied weather packets stored in our database for station/object EA5AFP-10. If no packets are shown the sender has not sent any weather packets the latest 1 day(s).
| Time | Temp. | Humidity | Pressure | Rain* | Wind** | Luminosity | Snow |
|---|---|---|---|---|---|---|---|
| 1777976459 | 22.78° C | 3% | - | 0 mm | 0.45 m/s, 270° | - | - |
| 1777976146 | 22.78° C | 3% | - | 0 mm | 3.58 m/s, 315° | - | - |
| 1777975878 | 23.33° C | 4% | - | 0 mm | 1.79 m/s, 315° | - | - |
| 1777975613 | 22.78° C | 4% | - | 0 mm | 2.24 m/s, 337° | - | - |
| 1777975318 | 22.78° C | 3% | - | 0 mm | 1.34 m/s, 292° | - | - |
| 1777975023 | 22.22° C | 4% | - | 0 mm | 1.34 m/s, 337° | - | - |
| 1777974895 | 22.78° C | 4% | - | 0 mm | 1.34 m/s, 292° | - | - |
| 1777974599 | 22.22° C | 4% | - | 0 mm | 2.24 m/s, 45° | - | - |
| 1777974340 | 22.22° C | 4% | - | 0 mm | 2.24 m/s, 45° | - | - |
| 1777974057 | 22.22° C | 4% | - | 0 mm | 1.34 m/s, 337° | - | - |
| 1777973800 | 22.22° C | 4% | - | 0 mm | 0.89 m/s, 45° | - | - |
| 1777973535 | 21.67° C | 4% | - | 0 mm | 0.89 m/s, 22° | - | - |
| 1777973240 | 21.67° C | 4% | - | 0 mm | 2.68 m/s, 0° | - | - |
| 1777973050 | 22.22° C | 4% | - | 0 mm | 1.34 m/s, 337° | - | - |
| 1777972978 | 22.22° C | 4% | - | 0 mm | 0.89 m/s, 315° | - | - |
| 1777972772 | 21.67° C | 5% | - | 0 mm | 2.24 m/s, 315° | - | - |
| 1777972499 | 21.67° C | 4% | - | 0 mm | 1.34 m/s, 315° | - | - |
| 1777972444 | 21.11° C | 4% | - | 0 mm | 1.79 m/s, 270° | - | - |
| 1777972220 | 21.11° C | 4% | - | 0 mm | 1.79 m/s, 270° | - | - |
| 1777971937 | 21.11° C | 4% | - | 0 mm | 0.89 m/s, 292° | - | - |
| 1777971679 | 21.11° C | 5% | - | 0 mm | 1.79 m/s, 292° | - | - |
| 1777971430 | 21.11° C | 5% | - | 0 mm | 0.45 m/s, 67° | - | - |
| 1777971427 | 21.11° C | 5% | - | 0 mm | 0.45 m/s, 67° | - | - |
| 1777971216 | 21.11° C | 5% | - | 0 mm | 0 m/s | - | - |
| 1777970949 | 20.56° C | 5% | - | 0 mm | 0.89 m/s, 67° | - | - |
* Rain latest hour (hover to see other rain measurements)
** Current wind speed in m/s (hover to see current wind gust speed)